[[{"header":{"parameterUnit":"m.s-1","parameterCategory":1,"la1":30.2992,"la2":30.254,"lo1":-89.0895,"lo2":-89.0443,"dy":0.0025,"dx":0.0025,"nx":19,"ny":19,"refTime":"2026-05-23T09:00:00:Z","depth":0,"parameterNumber":2,"parameterNumberName":"U-component_of_WINDS"},"data":[0,0,0,-1.1917,-1.1919,-1.2012,-1.2012,-1.2141,-1.2142,0,0,0,0,0,0,0,0,0,0,0,-1.1893,-1.1894,-1.1917,-1.1919,-1.2012,-1.2012,-1.214,-1.2142,0,0,0,0,0,0,0,0,0,0,0,-1.1892,-1.1893,-1.1895,-1.192,-1.2012,-1.2012,-1.214,-1.2068,0,0,0,0,0,0,0,0,0,0,-1.1977,-1.1956,-1.1893,-1.1895,-1.192,-1.2011,-1.2012,-1.2064,-1.2072,-1.2102,0,-1.2126,0,-1.2136,-1.2151,-1.2151,0,0,0,-1.1918,-1.1949,-1.1971,-1.1895,-1.1921,-1.2011,-1.197,-1.2068,-1.2078,-1.2113,-1.2128,-1.2133,-1.2138,-1.2152,-1.2152,-1.2321,-1.2322,0,0,-1.1913,-1.1912,-1.1964,-1.1977,-1.1959,-1.1967,-1.1973,-1.2074,-1.2092,-1.2129,-1.2136,-1.214,-1.2153,-1.2154,-1.232,-1.2321,0,0,0,-1.1899,-1.1908,-1.1927,-1.1972,-1.1987,-1.1969,-1.1976,-1.2087,-1.2093,-1.2137,-1.2142,-1.2153,-1.2155,-1.2319,-1.2321,-1.2358,0,0,0,-1.1896,-1.19,-1.1925,-1.1925,-1.1985,-1.2038,-1.1987,-1.2086,-1.2098,-1.2141,-1.2153,-1.2156,-1.2318,-1.232,-1.2355,-1.2376,0,0,0,-1.1886,-1.1899,-1.1913,-1.1925,-1.1964,-1.2036,-1.2048,-1.2089,-1.2101,-1.2151,-1.2157,-1.2318,-1.232,-1.2352,-1.2372,-1.2419,0,0,0,-1.1875,-1.1947,-1.1913,-1.1996,-1.1963,-1.2058,-1.2047,-1.2119,-1.2167,-1.2154,-1.2319,-1.2321,-1.2352,-1.2369,-1.2416,-1.2457,-1.2474,0,0,-1.1965,-1.1958,-1.2006,-1.1979,-1.2078,-1.2044,-1.2151,-1.2198,-1.2207,-1.2283,-1.2288,-1.2356,-1.2372,-1.2418,-1.2573,-1.2587,0,0,0,-1.2034,-1.2069,-1.2096,-1.2139,-1.2175,-1.2208,-1.2239,-1.2257,-1.2322,-1.2244,-1.2387,-1.2396,-1.2424,-1.2444,-1.2455,-1.2479,-1.233,-1.233,-1.2329,-1.2158,-1.2163,-1.2243,-1.2259,-1.2302,-1.2333,-1.2369,-1.2399,-1.2393,-1.2427,-1.2449,-1.2542,-1.2565,-1.2574,-1.2599,-1.2473,-1.2473,-1.2473,-1.2473,-1.2289,-1.2338,-1.2327,-1.2401,-1.2407,-1.2471,-1.2505,-1.2499,-1.2561,-1.2526,-1.2551,-1.251,-1.2588,-1.261,-1.2476,-1.2476,-1.2475,-1.2475,-1.2475,-1.2369,-1.2393,-1.2412,-1.2475,-1.2525,-1.2541,-1.26,-1.2605,-1.261,-1.2634,-1.2658,-1.2658,-1.2657,-1.2646,-1.2646,-1.2646,-1.2647,-1.2647,-1.2647,-1.2444,-1.2464,-1.2511,-1.2555,-1.2584,-1.2623,-1.2656,-1.2686,-1.272,-1.2719,-1.2719,-1.271,-1.2595,-1.2565,-1.2652,-1.2651,-1.265,-1.265,-1.265,-1.2572,-1.2543,-1.2616,-1.2645,-1.2698,-1.2747,-1.2752,-1.2813,-1.2839,-1.2868,-1.2855,-1.2769,-1.2763,-1.2754,-1.2729,-1.2853,-1.2853,-1.2853,-1.2853,-1.2638,-1.2635,-1.271,-1.2756,-1.2802,-1.2814,-1.2899,-1.2927,-1.2952,-1.2969,-1.2952,-1.292,-1.2911,-1.291,-1.2898,-1.2875,-1.3033,-1.3034,-1.3034,-1.2717,-1.2718,-1.2788,-1.2808,-1.285,-1.2888,-1.2968,-1.3024,-1.3047,-1.3041,-1.2982,-1.2975,-1.2923,-1.2906,-1.2897,-1.2877,-1.2835,0,0]},{"header":{"parameterUnit":"m.s-1","parameterCategory":1,"la1":30.2992,"la2":30.254,"lo1":-89.0895,"lo2":-89.0443,"dy":0.0025,"dx":0.0025,"nx":19,"ny":19,"refTime":"2026-05-23T09:00:00:Z","depth":0,"parameterNumber":3,"parameterNumberName":"V-component_of_WINDS"},"data":[0,0,0,1.1131,1.1136,1.1413,1.1415,1.1719,1.1721,0,0,0,0,0,0,0,0,0,0,0,1.1021,1.1022,1.113,1.1136,1.1413,1.1415,1.1719,1.1721,0,0,0,0,0,0,0,0,0,0,0,1.102,1.1021,1.1023,1.1137,1.1413,1.1415,1.1718,1.1526,0,0,0,0,0,0,0,0,0,0,1.1265,1.1137,1.1021,1.1023,1.1139,1.1413,1.1415,1.1518,1.1538,1.1573,0,1.1598,0,1.1665,1.1739,1.174,0,0,0,1.1156,1.112,1.122,1.1023,1.1141,1.1412,1.1294,1.153,1.1553,1.1599,1.1603,1.1616,1.167,1.174,1.1742,1.1881,1.188,0,0,1.1141,1.1055,1.1204,1.1234,1.1191,1.1285,1.1302,1.1544,1.1542,1.1605,1.1624,1.1675,1.1742,1.1744,1.1881,1.188,0,0,0,1.1084,1.1043,1.1139,1.122,1.1274,1.1292,1.1313,1.1531,1.157,1.1628,1.1678,1.1744,1.1747,1.1881,1.1881,1.1784,0,0,0,1.1075,1.101,1.1131,1.1081,1.1268,1.1406,1.1293,1.1553,1.1583,1.1677,1.1744,1.1749,1.1882,1.1881,1.1788,1.1753,0,0,0,1.1012,1.1003,1.1034,1.1076,1.1192,1.1405,1.1458,1.1561,1.1613,1.174,1.175,1.1882,1.1881,1.1791,1.1759,1.1766,0,0,0,1.0919,1.0942,1.1031,1.1077,1.1189,1.1343,1.1457,1.1576,1.1673,1.1745,1.1882,1.1881,1.1792,1.1762,1.1768,1.1757,1.1744,0,0,1.0901,1.0937,1.0971,1.1058,1.1175,1.1308,1.141,1.1579,1.1668,1.1804,1.1809,1.1787,1.1759,1.1766,1.1699,1.1687,0,0,0,1.0936,1.0959,1.1009,1.1099,1.123,1.134,1.1503,1.1566,1.1686,1.1721,1.1793,1.1779,1.1787,1.1786,1.1776,1.1789,1.1876,1.1876,1.1876,1.0787,1.0902,1.0966,1.1114,1.1199,1.1367,1.1446,1.1559,1.1649,1.1663,1.1705,1.165,1.1645,1.1639,1.165,1.1707,1.1707,1.1706,1.1706,1.0772,1.0824,1.0943,1.1048,1.1168,1.1256,1.1418,1.1478,1.1576,1.1628,1.1641,1.1688,1.1623,1.1639,1.17,1.1701,1.1702,1.1702,1.1703,1.0689,1.0734,1.0811,1.0953,1.1048,1.1196,1.1286,1.1391,1.149,1.1503,1.1558,1.156,1.1576,1.1521,1.1521,1.1521,1.1521,1.1521,1.1521,1.0572,1.0663,1.0727,1.0868,1.0939,1.1046,1.1214,1.1287,1.1394,1.1464,1.1465,1.1552,1.1595,1.1604,1.1518,1.1519,1.1519,1.1519,1.152,1.0517,1.0547,1.0645,1.0717,1.0891,1.0979,1.1112,1.125,1.1325,1.1366,1.1451,1.1465,1.151,1.1518,1.1526,1.1426,1.1426,1.1426,1.1426,1.0448,1.0481,1.0606,1.0714,1.0831,1.0961,1.1067,1.1197,1.1335,1.1388,1.1417,1.1437,1.1441,1.1483,1.1492,1.1502,1.1397,1.1397,1.1397,1.0421,1.047,1.0542,1.068,1.0823,1.0943,1.1046,1.1162,1.1325,1.1399,1.1432,1.1433,1.1466,1.1471,1.1546,1.1558,1.1578,0,0]}]]